Regional Weather Roundup
Issued by NWS Charleston, WV

Home | Current Version | Previous Version | Text Only | Print | Product List | Glossary Off
Versions: 1 2 3 4 5 6 7 8 9 10 11 12 13 14 15 16 17 18 19 20 21 22 23 24 25 26 27 28 29 30 31 32 33 34 35 36 37 38 39 40 41 42 43 44 45 46 47 48 49 50

442
ASUS41 KRLX 190410
RWRRLX
West Virginia Regional Weather Roundup
National Weather Service Charleston WV
1200 AM EDT SAT AUG 19 2017

Note: "fair" indicates few or no clouds below 12,000 feet with no
significant weather and/or obstructions to visibility.

WVZ003-190500-
Northern Panhandle of West Virginia

CITY           SKY/WX    TMP DP  RH WIND       PRES   REMARKS
WHEELING       MOCLDY    70  63  78 S5        29.93R
$$

WVZ009-190500-
Northwest West Virginia

CITY           SKY/WX    TMP DP  RH WIND       PRES   REMARKS
PARKERSBURG      N/A     68  65  90 CALM      29.97R
$$

WVZ006-190500-
Western West Virginia

CITY           SKY/WX    TMP DP  RH WIND       PRES   REMARKS
HUNTINGTON       N/A     71  66  84 SW3       29.95R
$$

WVZ015-190500-
West Central West Virginia

CITY           SKY/WX    TMP DP  RH WIND       PRES   REMARKS
CHARLESTON       N/A     69  66  90 CALM      29.96R
$$

WVZ022-031-190500-
North Central West Virginia

CITY           SKY/WX    TMP DP  RH WIND       PRES   REMARKS
CLARKSBURG       N/A     67  63  87 CALM      29.96R
MORGANTOWN       N/A     68  64  87 S6        29.96R
$$

WVZ025-035-042-045-190500-
Southern West Virginia

CITY           SKY/WX    TMP DP  RH WIND       PRES   REMARKS
BECKLEY          N/A     65  63  93 CALM      30.05S
LOGAN            N/A     70  66  88 CALM      30.00S
BLUEFIELD        N/A     66  64  93 W5        30.08R
LEWISBURG        N/A     64  64  97 CALM      30.03S FOG
$$

WVZ047-190500-
Northern Mountains of West Virginia

CITY           SKY/WX    TMP DP  RH WIND       PRES   REMARKS
ELKINS           N/A     66  63  90 CALM      30.02R
$$

WVZ052-190500-
Eastern Panhandle of West Virginia

CITY           SKY/WX    TMP DP  RH WIND       PRES   REMARKS
MARTINSBURG      N/A     78  65  63 W7        29.87F
PETERSBURG       N/A     71  70  97 CALM      29.94S
$$




USA.gov is the U.S. government's official web portal to all federal, state and local government web resources and services.